Location: Warszawa
(52.2500°N, 21.0000°E)
Time: 20:42:35
(UTC+02:00)

A-11 Canister half - Pass Details

Date: 11 February 2023
Orbit: 1526 x 1682 km, 47.3° (Epoch: 27 March)

Event Time Altitude Azimuth Distance (km) Brightness Sun altitude
Exits shadow 05:08:30 18° 242° (WSW) 3,092 10.1 -17.5°
Maximum altitude 05:15:38 62° 168° (SSE) 1,693 9.3 -16.4°
Drops below altitude 10° 05:24:49 10° 91° (E) 3,731 12.4 -15.0°
Sets 05:27:56 0° 88° (E) 4,731 13.5 -14.5°
